Loisir ou Compétition : Rejoignez un Club de la Fédération

Résultats

GRAND PRIX REGIONAL LA BUCHERONNE

MEGEVE

KO-QLF Hommes

Jury de Compétition

Délégué Technique :
PIQUOT SYLVAIN (MB)
D.T. Adjoint :
 
Dir. Epreuve :
PORRET THIERRY (MB)

Caractéristiques de la Piste

Piste :
LA LIVRAZ
Distance :
0.8 km
Point Haut :
 
Point Bas :
 
Montée Tot. :
 
Montée Max. :
 
Homologation :
2016-63-1

Pénalité Appliquée :
 
Coefficient :
 

Catégorie :
U15
Style :
C
Clt Dos Clt/Cat Code An Nom Prénom Com Club Temps Ecart Points
Classés
1 210 1/U15 FFS2686938 2005 VALLEIX JORIS MB SCNP ROCHOIS 3:20.24 00.00
2 212 2/U15 FFS2686242 2005 VIGUIER QUENTIN MB CS LA CLUSAZ 3:22.19 01.95
3 219 3/U15 FFS2667744 2005 BIZZOCCHI ESTEBAN MB SC D'AGY 3:31.51 11.27
4 214 4/U15 FFS2686663 2005 PERRILLAT BOITEUX ANTHONY MB SC GD BORNAN 3:32.15 11.91
5 209 5/U15 FFS2686681 2005 DELOCHE LINO MB SC GD BORNAN 3:36.14 15.90
6 213 6/U15 FFS2671565 2005 COLOMBAN ALEXIS MB SCNP ROCHOIS 3:37.86 17.62
7 211 7/U15 FFS2676910 2005 CLAVEL SIMON MB CS LA CLUSAZ 3:40.43 20.19
8 217 8/U15 FFS2681171 2005 LUZET HUGO MB CS LA CLUSAZ 3:43.29 23.05
9 215 9/U15 FFS2686793 2005 MARIE ADELIN MB SC D'AGY 3:48.25 28.01
10 283 10/U15 FFS2696599 2005 MOREL ANTOINE SA SC ARECHES 3:50.02 29.78
11 218 11/U15 FFS2686695 2005 PERRILLAT BOTTONET JUDICA MB SC GD BORNAN 3:50.32 30.08
12 227 12/U15 FFS2692545 2006 BIANCOLLI LUIGI MB CNG 3:51.88 31.64
13 239 13/U15 FFS2686538 2005 JOMIER LOIS MB DRAGONS ANNY 3:53.25 33.01
14 220 14/U15 FFS2691996 2006 CALANDRY JOHAN MB DRAGONS ANNY 3:53.61 33.37
15 221 15/U15 FFS2686939 2005 GRENARD MAX MB SCNP ROCHOIS 3:55.91 35.67
16 236 16/U15 FFS2697607 2006 ALLOT CAUCHARD BASILE MB CNG 3:58.86 38.62
17 280 17/U15 FFS2690844 2005 HAEBERLI ARTHUR MB CS LA CLUSAZ 3:59.76 39.52
18 228 18/U15 FFS2686795 2005 DELERCE THIBAULT MB SC D'AGY 4:00.72 40.48
19 234 19/U15 FFS2686539 2005 LACROIX MATTHIAS MB DRAGONS ANNY 4:02.94 42.70
20 223 20/U15 FFS2666342 2005 OUVRIER BUFFET JULES MB CS LA CLUSAZ 4:03.47 43.23
21 230 21/U15 FFS2681175 2006 MERMILLOD BLARDET CYPRIEN MB CS LA CLUSAZ 4:03.77 43.53
22 237 22/U15 FFS2696947 2006 BOUCHEX BELLOMIE KLEO MB CS MEGEVE 4:04.71 44.47
23 224 23/U15 FFS2692252 2006 MENCIER ARTHUR MB SCNP ROCHOIS 4:05.19 44.95
24 442 24/U15 FFS2687035 2005 CORNU MATHIEU MB CS CHAMONIX 4:05.39 45.15
25 216 25/U15 FFS2666324 2005 FAVRE FELIX KILLIAN MB SC GD BORNAN 4:05.43 45.19
26 235 26/U15 FFS2692552 2005 PETROD BASTIEN MB CNG 4:05.51 45.27
27 249 27/U15 FFS2672036 2006 BIZZOCCHI ENNIO MB SC D'AGY 4:07.44 47.20
28 226 28/U15 FFS2691557 2006 PERRILLAT COLLOMB MARIO MB SC GD BORNAN 4:08.33 48.09
29 231 29/U15 FFS2669077 2006 BOUCHEX BELLOMIE JEREMIE MB CS MEGEVE 4:08.97 48.73
30 233 30/U15 FFS2692554 2005 ZAVARISE NOAH MB CNG 4:09.14 48.90
31 225 31/U15 FFS2691553 2006 LESPINE QUENTIN MB SC GD BORNAN 4:10.92 50.68
32 244 32/U15 FFS2687102 2005 SYLVESTRE BARON PAUL MB SCNP ROCHOIS 4:11.98 51.74
33 247 33/U15 FFS2691437 2006 GANDIGLIO TIBO MB PRAZ LYS-SOM 4:13.47 53.23
34 240 34/U15 FFS2679388 2006 GILARDONI LOUISON MB CS MEGEVE 4:14.47 54.23
35 269 35/U15 FFS2678687 2005 MILLET DIWAN MB SCNP ROCHOIS 4:15.79 55.55
36 238 36/U15 FFS2693695 2006 PINGET LORIS MB VILLARD/BOEG 4:16.15 55.91
37 250 37/U15 FFS2686940 2005 LEVET PROSPER MB SCNP ROCHOIS 4:16.16 55.92
38 248 38/U15 FFS2687749 2006 PEALA NILS MB DRAGONS ANNY 4:18.93 58.69
39 270 39/U15 FFS2691704 2006 REYMOND NOLAN MB SALLANCHES 4:19.03 58.79
40 232 40/U15 FFS2670538 2006 SEIGNEUR NOE MB VILLARD/BOEG 4:19.62 59.38
41 266 41/U15 FFS2676738 2005 CHETAIL JULES MB CS MEGEVE 4:20.02 59.78
42 243 42/U15 FFS2691548 2006 GODINAT ETHAN MB SC GD BORNAN 4:20.95 1:00.71
43 279 43/U15 FFS2687430 2006 CHAUVEL NOLANE SA SC ARECHES 4:20.96 1:00.72
44 254 44/U15 FFS2686260 2005 BOSSUT AUGUSTIN MB PRAZ LYS-SOM 4:22.55 1:02.31
45 241 45/U15 FFS2688043 2005 MAGNIEZ OSCAR MB DRAGONS ANNY 4:22.59 1:02.35
46 246 46/U15 FFS2681304 2005 PERSONNAZ LOAN MB DRAGONS ANNY 4:23.39 1:03.15
47 242 47/U15 FFS2696623 2006 LAVY ARTHUR MB DRAGONS ANNY 4:23.97 1:03.73
48 277 48/U15 FFS2687425 2006 PACALET CHARLES SA SC ARECHES 4:24.28 1:04.04
49 275 49/U15 FFS2687428 2006 PAVIET SALOMON ROMAIN SA SC ARECHES 4:24.70 1:04.46
50 222 50/U15 FFS2691997 2006 FAVRE NILS MB DRAGONS ANNY 4:25.93 1:05.69
51 252 51/U15 FFS2675891 2006 ROUX MATHIS MB CS MEGEVE 4:26.34 1:06.10
52 258 52/U15 FFS2687034 2005 FIVEL DEMORET HUGO MB SC CONTAMINE 4:26.90 1:06.66
53 261 53/U15 FFS2688574 2006 TOCQUEVILLE LOUIS MB CS LA CLUSAZ 4:27.58 1:07.34
54 245 54/U15 FFS2691998 2006 LOYER ARMAN MB DRAGONS ANNY 4:28.27 1:08.03
55 253 55/U15 FFS2672513 2006 HUDRY VALENTIN MB SC GD BORNAN 4:29.59 1:09.35
56 257 56/U15 FFS2702394 2006 BOLLARD ROMAIN MB CNG 4:29.74 1:09.50
57 267 57/U15 FFS2702100 2006 NOZIN KILIAN MB SCNP ROCHOIS 4:30.13 1:09.89
58 263 58/U15 FFS2679226 2006 GRZELAK AYMERIC MB CS MEGEVE 4:31.42 1:11.18
59 255 59/U15 FFS2691561 2006 REMONT HUGO MB SC GD BORNAN 4:34.42 1:14.18
60 282 60/U15 FFS2682397 2005 SUET PIERRE SA SC ARECHES 4:37.59 1:17.35
61 256 61/U15 FFS2701302 2006 DEXPERT MALO MB SC GD BORNAN 4:40.52 1:20.28
62 284 62/U15 FFS2696236 2005 MONGELLAZ JULES MB SC CONTAMINE 4:45.81 1:25.57
63 262 63/U15 FFS2693681 2006 BRETONNIERE ANTON MB VILLARD/BOEG 4:48.00 1:27.76
64 260 64/U15 FFS2689955 2006 BREMOND NATHAN MB SC GD BORNAN 4:51.66 1:31.42
65 268 65/U15 FFS2687856 2005 VEISY KILLIAN MB EN HT GIFFRE 4:52.69 1:32.45
66 259 66/U15 FFS2671164 2006 MESER BALET NATHAN MB VILLARD/BOEG 4:53.07 1:32.83
67 274 67/U15 FFS2693692 2006 JACQUELINE LEO MB VILLARD/BOEG 4:53.51 1:33.27
68 272 68/U15 FFS2692777 2006 MARUZZI LEO MB CS ARGENTIER 4:56.67 1:36.43
69 273 69/U15 FFS2691434 2006 BOUCHET MAEL MB PRAZ LYS-SOM 4:59.13 1:38.89
70 285 70/U15 FFS2687426 2006 COSTE JOSEPH SA SC ARECHES 5:08.68 1:48.44
71 265 71/U15 FFS2682273 2006 SORDET JULES MB VILLARD/BOEG 5:17.87 1:57.63
72 271 72/U15 FFS2693696 2006 STALDER ANTOINE MB VILLARD/BOEG 5:23.21 2:02.97
73 278 73/U15 FFS2703750 2006 DUVILLIER ROMAIN MB LES GETS S.C 5:24.41 2:04.17
74 281 74/U15 FFS2699088 2006 DELAY TIMOTHEE MB SC D'AGY 5:33.85 2:13.61
75 276 75/U15 FFS2692691 2006 PERY AUBIN MB SC D'AGY 5:40.61 2:20.37
Non partants
229 FFS2686543 2005 ROMERI NATHAN MB DRAGONS ANNY
251 FFS2693694 2006 MARTIN LUBIN MB VILLARD/BOEG
264 FFS2691439 2006 PATRY YANIS MB PRAZ LYS-SOM
441 FFS2674953 2006 BETEND BAPTISTE MB CS ARGENTIER